Погода в Натырбово

Россия / Республика Адыгея     44°43′51″N   40°37′17″E
В апреле 2022 года жителям России запретили посещать сайт meteo.paraplan.net по решению Генеральной прокуратуры. Аудитория сайта уменьшилась в 10 раз. Владельцы сайта не видят смысла в поддержке погодного сервера в таких условиях. Сайт будет закрыт в октябре.
темп.,
°C
ветер,
м/с
пор.,
м/с
влажн.,
%
обл.,
%
осадки,
мм/ч
давл.,
гПа
погр.,
м
3 октября, пн
пн300:00+20з81567100 0.0 1004839
03:00+17з101590100 0.4 1006759
06:00+15зсз61085100 7.0 1010730
09:00+16зсз686816 7.0 10131068
12:00+18з575136 0.0 10141282
15:00+19зсз454490 0.0 10141647
18:00+17всв225123 0.0 101517
21:00+14юв337154 0.0 101557
4 октября, вт
вт400:00+16в2562100 0.0 1014108
03:00+14вюв356843 0.0 101388
06:00+14вюв127499 0.1 101456
09:00+15всв007767 0.2 101461
12:00+18з236099 0.0 1015533
15:00+17ю226298 0.0 1016188
18:00+17ююв226247 0.0 101738
21:00+17ююв2257100 0.0 101841
5 октября, ср
ср500:00+16юз1164100 0.1 101911
03:00+15зюз2272100 0.2 102019
06:00+14юз2284100 0.4 102027
09:00+14в0287100 1.9 1022201
12:00+17всв1174100 0.8 1023493
15:00+19ссз226284 0.8 10221095
18:00+16с227699 0.3 102333
21:00+15з118093 0.8 102415
6 октября, чт
чт600:00+14зсз366898 0.0 1025254
03:00+13з3565100 0.0 1026190
06:00+12зсз226661 0.0 102690
09:00+14сз115796 0.0 1026385
12:00+17с2246100 0.0 10251013
15:00+18ссв2243100 0.0 10251311
18:00+15ссв114952 0.0 102511
21:00+13всв22546 0.0 102615
7 октября, пт
пт700:00+12в235829 0.0 102664
03:00+11в22652 0.0 102532
06:00+10в34700 0.0 102571
09:00+15в47610 0.0 1025478
12:00+19всв56525 0.0 10231181
15:00+21в565222 0.0 10221495
18:00+16вюв49705 0.0 1023236
21:00+14в38775 0.0 1022172